Location: T�bingen+AIT
(48.5342°N, 9.0700°E)
Time: 20:28:26
(UTC+02:00)

Spot 2 Rocket - Pass Details

Date: 14 September 2017
Orbit: 757 x 773 km, 98.7° (Epoch: 20 September)

Event Time Altitude Azimuth Distance (km) Brightness Sun altitude
Exits shadow 20:53:55 - 163° (SSE) 2,957 6.2 -13.0°
Reaches altitude 10° 20:55:35 10° 163° (SSE) 2,290 5.6 -13.3°
Maximum altitude 21:00:38 90° 78° (ENE) 767 3.5 -14.0°
Drops below altitude 10° 21:05:42 10° 345° (NNW) 2,299 6.5 -14.8°
Sets 21:08:01 0° 346° (NNW) 3,227 7.3 -15.2°
